STARLINK-33792, 63506

Orbit data source: Space-Track

STARLINK-33792, 63506 is a payload satellite owned by SpaceX/Seattle (US) in LEO that was launched on Mon, 07 Apr 2025 UTC via an FALCON 9 launch vehicle from the Air Force Western Test Range (AFWTR). Payload-class satellites include a variety of spacecraft equipped with specific instruments for various scientific and technological missions. These include communications satellites like Starlink; space stations such as the ISS; scientific satellites like the Hubble; Earth observation satellites from companies like Planet Labs, Umbra, and HawkEye 360; GPS; miniature CubeSats for education and research; and military/defense satellites.

Loading next visibility...
Identifier
63506, 2025-071P
Orbit
LEO
Country
Flag of USUS
Related business
Manufacturer
SpaceX/Seattle
Mission
Operational Commercial Communications
Bus & Motor
STARLINK V2MO, Unknown motor
Mass
575 kg wet, ~530 kg dry
Launch date (UTC)
2025-04-07 (6 months ago)
Launch vehicle
FALCON 9
Launch site
Air Force Western Test Range (AFWTR)
Object type
Payload
Rocket body
Debris
Shape & HBR
Box + 2 Pan, 17.7 m
Radar Cross Section
36.964 m², Large (>1 m²)

Expand to show TLE details & history
Last TLE update: 1 day ago

TLE from 1 day ago
0 STARLINK-33792
1 63506U 25071P   25290.85220065  .00059695  00000-0  20121-2 0  9993
2 63506  53.1561  83.1856 0001571  89.4012 270.7169 15.30190264 30851
Epoch: 2025-10-17T20:27Z
TLE epoch observation values (Epoch: 2025-10-17T20:27:10.136Z)
Latitude
0.00002°
Longitude
109.80175°
Altitude
476.13 km
Speed
7.629 km/s
True Right ascension
05h 32m 44s
True Declination
0° 00' 00"
Sunlit
Object was in full shadow at epoch
Visualization orbit readout
Latitude
Unknown
Longitude
Unknown
Altitude
Unknown
Speed
Unknown
Apparent Right ascension
Unknown
Apparent Declination
Unknown
Sunlit
N/A
Visualization observer readout
Local Sidereal Time
18:37:14
Azimuth
Unknown
Elevation
Unknown
Doppler factor
Unknown
Orbital elements
Apogee altitude
476.578 km
Perigee altitude
474.424 km
Semi-major axis
6,853.638 km
Eccentricity
0.00016
Inclination
53.1561°
RAAN
83.1856°
Arg. of periapsis
89.4012°
True anomaly
270.6989°
Mean anomaly
270.7169°
Eccentric anomaly
270.7079°
Mean motion
3.82526 °/min
Orbital period
94.11 mins
BSTAR
0.0020121
Loading maneuver chart data...
Computing Atmospheric mass density...
Loading historical data...
Loading historical data...
Loading historical data...
Loading historical data...
Loading historical data...
Loading historical data...
Loading historical data...

Documentation

Showing up to 5 results
|